Change the Weather History Date:

Saturday, May 11, 2013

  Actual Average Record
Temperature  
Mean Temperature 74 °F 75 °F  
Max Temperature 83 °F 85 °F 94 °F (1939)
Min Temperature 64 °F 65 °F 45 °F (1981)
Degree Days  
Heating Degree Days 0 0  
Month to date heating degree days 24 0  
Since 1 July heating degree days 1354 1606  
Cooling Degree Days 9 10  
Month to date cooling degree days 54 98  
Year to date cooling degree days 281 337  
Growing Degree Days 23 (Base 50)    
Moisture  
Dew Point 59 °F    
Average Humidity 64    
Maximum Humidity 93    
Minimum Humidity 35    
Precipitation  
Precipitation 0.01 in 0.14 in 3.72 in (1954)
Month to date precipitation 4.44 1.50  
Year to date precipitation 13.98 13.42  
Sea Level Pressure  
Sea Level Pressure 30.04 in    
Wind  
Wind Speed 10 mph (North)    
Max Wind Speed 17 mph    
Max Gust Speed 23 mph    
Visibility 9 miles    
Events      
T = Trace of Precipitation, MM = Missing Value Source: NWS Daily Summary

Daily Weather History Graph

Daily Weather History Graph

Search for Another Location

Airport or City:

Trip Planner

Search our weather history database for the weather conditions in past years. The results will help you decide how hot, cold, wet, or windy it might be!

Date:

Astronomy

May. 11, 2013 Rise Set
Actual Time 6:33 AM CDT 8:10 PM CDT
Civil Twilight 6:07 AM CDT 8:36 PM CDT
Nautical Twilight 5:35 AM CDT 9:08 PM CDT
Astronomical Twilight 5:03 AM CDT 9:41 PM CDT
Moon 7:44 AM CDT (5/11) 9:49 PM CDT (5/11)
Length of Visible Light 14h 29m
Length of Day
13h 37m
Waxing Crescent, 3% of the Moon is Illuminated
May 11
Waxing Crescent
May 17
First Quarter
May 24
Full
May 31
Last Quarter
Jun 8
New

Hourly Weather History & Observations

Time (CDT) Temp. Heat Index Dew Point Humidity Pressure Visibility Wind Dir Wind Speed Gust Speed Precip Events Conditions
12:53 AM 68.0 °F - 64.9 °F 90% 29.98 in 10.0 mi Calm Calm - 0.17 in   Clear
1:53 AM 66.0 °F - 64.0 °F 93% 29.96 in 8.0 mi NW 4.6 mph - N/A   Clear
2:53 AM 66.0 °F - 64.9 °F 96% 29.98 in 6.0 mi NW 6.9 mph - N/A   Clear
3:28 AM 66.2 °F - 66.2 °F 100% 30.01 in 4.0 mi NW 9.2 mph - N/A   Scattered Clouds
3:40 AM 66.2 °F - 66.2 °F 100% 30.01 in 4.0 mi NW 8.1 mph - N/A   Mostly Cloudy
3:53 AM 66.9 °F - 64.9 °F 93% 29.99 in 7.0 mi NW 9.2 mph - 0.01 in   Scattered Clouds
4:53 AM 66.0 °F - 62.1 °F 87% 30.01 in 10.0 mi NNW 6.9 mph - N/A   Clear
5:53 AM 64.9 °F - 62.1 °F 90% 30.01 in 10.0 mi NNW 9.2 mph - N/A   Clear
6:53 AM 64.0 °F - 62.1 °F 93% 30.02 in 10.0 mi NNW 4.6 mph - N/A   Clear
7:53 AM 66.0 °F - 62.1 °F 87% 30.04 in 10.0 mi North 6.9 mph - N/A   Clear
8:53 AM 71.1 °F - 64.0 °F 78% 30.05 in 10.0 mi NNE 9.2 mph - N/A   Clear
9:53 AM 73.9 °F - 64.0 °F 71% 30.06 in 10.0 mi NNE 10.4 mph - N/A   Clear
10:53 AM 77.0 °F - 64.0 °F 64% 30.07 in 10.0 mi North 12.7 mph - N/A   Clear
11:53 AM 79.0 °F - 64.0 °F 60% 30.07 in 10.0 mi North 12.7 mph - N/A   Partly Cloudy
12:53 PM 79.0 °F - 62.1 °F 56% 30.07 in 10.0 mi North 9.2 mph 18.4 mph N/A   Scattered Clouds
1:53 PM 80.1 °F 80.9 °F 60.1 °F 50% 30.06 in 10.0 mi NNW 13.8 mph 21.9 mph N/A   Partly Cloudy
2:53 PM 82.0 °F 81.6 °F 55.9 °F 41% 30.06 in 10.0 mi North 11.5 mph - N/A   Clear
3:53 PM 82.0 °F 81.3 °F 54.0 °F 38% 30.04 in 10.0 mi North 15.0 mph 18.4 mph N/A   Clear
4:53 PM 82.9 °F 81.8 °F 53.1 °F 36% 30.04 in 10.0 mi North 16.1 mph 20.7 mph N/A   Clear
5:53 PM 81.0 °F - 52.0 °F 36% 30.03 in 10.0 mi North 12.7 mph - N/A   Clear
6:53 PM 79.0 °F - 48.0 °F 34% 30.04 in 10.0 mi NNE 13.8 mph - N/A   Clear
7:53 PM 75.0 °F - 51.1 °F 43% 30.06 in 10.0 mi North 8.1 mph - N/A   Clear
8:53 PM 71.6 °F - 51.8 °F 50% 30.09 in 10.0 mi North 8.1 mph - N/A   Clear
9:53 PM 68.0 °F - 51.1 °F 55% 30.12 in 10.0 mi North 6.9 mph - N/A   Clear
10:53 PM 68.0 °F - 50.0 °F 52% 30.11 in 10.0 mi North 8.1 mph - N/A   Clear
11:53 PM 69.1 °F - 48.9 °F 49% 30.12 in 10.0 mi NNE 8.1 mph - N/A   Clear